"Pseudo-MPEC" for P21knAs

Created 2021 Sep 15 22:07:27 UT using Find_Orb

Click here for an explanation of pseudo-MPECs

 
 Astrometry: 
     P21knAs  C2021 09 01Q/!-4p!ZG0v6J;GlVtlh\6-YX(atntdy]e`q[a+(r'svv@BRohtQF51
     P21knAs  C2021 09 01X'd6/dWOW7n=.PY92+t+[p#HOkBJ#D:2JYCJ.aVI,wbs\\X=R^@TF51
     P21knAs  C2021 09 013ePmiS8^?b=cg%c(Astrometry[[,B2H;n+M172+FyKvG:*9xIUoF51
     P21knAs  C2021 09 072vtP%0eeRx3GlrNX0:=0nredacted;h`;)j.[:cQ`%V?iB*ut=B@F52
     P21knAs  C2021 09 076KxedY*JNg;\#UF.5`3lY#h=xbZu(JF[$ewhE[ms#.clickV=V4RF52
     P21knAs  C2021 09 07p!xO$fFW(,1+,lcqCRXEj[-;J0OVQU//uU@$5Lit25^*Xjj5jvDAF52
     P21knAs ,C2021 09 09TqV4eweaR,eB2.ECT)UD]E3NK/Lm/'@;t+99lEy1A2?81lnqkQ=$F65
     P21knAs ,C2021 09 09YBh,iQg-q([Wuu#uti`..q%!?vlqmJP686%j#g;`Hr5Cv0re'XMiF65
     P21knAs ,C2021 09 09*RjI)6@P;KfhereS;Fwsg9Y51H3aY+:c.)m`NqC7fortY:g2:d+'F65
     P21knAs ,C2021 09 09WdqC2**Eie9,sw3%KWwb+1explanationYExk`bPgt:^=BGe2sr_F65

Station data:
(F51) Pan-STARRS 1, Haleakala  (N20.707235 W156.255910)  US/Hawaii.
   Observers N. Primak, A. Schultz, S. Watters, J. Thiel, T. Goggia. Measurer
   PS1 Science Consortium. 1.8-m Ritchey-Chrétien + CCD.
(F52) Pan-STARRS 2, Haleakala  (N20.707384 W156.255910)  US/Hawaii. 1.8-m
   Ritchey-Chrétien + CCD.
(F65) Haleakala-Faulkes Telescope North  (N20.707007 W156.257500)  US/Hawaii.
   2.0-m Faulkes Telescope North.

Orbital elements:  P21knAs
   Perihelion 2021 Apr 26.562414 +/- 1.86416 TT = 13:29:52 (JD 2459331.062414)
Epoch 2021 Sep  9.0 TT = JDT 2459466.5                        AutoNEOCP
M  25.02574394 +/- 3.2716166        (J2000 ecliptic)
n   0.18477694 +/- 0.0258583        Peri.  266.94257 +/- 2.3971098
a   3.05284101 +/- 0.284442         Node    82.89997 +/- 1.4030675
e   0.2327311 +/- 0.0748746         Incl.   16.98981 +/- 0.1870900
P   5.33                   H 16.5   G  0.15   U 10.3  
q 2.34234982 +/- 0.0145193    Q 3.76333219 +/- 0.758357
From 10 observations 2021 Sept. 1-9; mean residual 0".04
Residuals in arcseconds: 
210901 F51  .04-  .04+    210907 F52  .02-  .02+    210909 F65  .11+  .03-    
210901 F51  .04+  .03-    210907 F52  .01-  .01+    210909 F65  .05-  .07+    
210901 F51  .00   .01-    210909 F65  .03-  .02-    
210907 F52  .02+  .02-    210909 F65  .03-  .02-    

Ephemerides (geocentric):
Date (UTC) HH   RA              Dec         delta   r     elong  mag " sig PA
---- -- -- --  -------------   -----------  ------ ------ -----  --- ---- ---
2021 09 15 22  03 46 41.597   +01 45 23.72  1.8398 2.4617 116.7 20.8 3.83  43
2021 09 15 23  03 46 42.194   +01 45 21.43  1.8394 2.4618 116.8 20.8 3.87  43
2021 09 16 00  03 46 42.789   +01 45 19.13  1.8390 2.4619 116.8 20.8 3.92  43
2021 09 16 01  03 46 43.381   +01 45 16.82  1.8387 2.4619 116.8 20.8 3.97  43
2021 09 16 02  03 46 43.970   +01 45 14.51  1.8383 2.4620 116.9 20.8 4.01  43
2021 09 16 03  03 46 44.556   +01 45 12.20  1.8379 2.4621 116.9 20.8 4.06  44
2021 09 16 04  03 46 45.140   +01 45 09.88  1.8376 2.4621 117.0 20.8 4.11  44
2021 09 16 05  03 46 45.720   +01 45 07.56  1.8372 2.4622 117.0 20.8 4.16  44
2021 09 16 06  03 46 46.298   +01 45 05.24  1.8368 2.4623 117.0 20.8 4.21  44
2021 09 16 07  03 46 46.872   +01 45 02.91  1.8365 2.4623 117.1 20.8 4.26  44
2021 09 16 08  03 46 47.444   +01 45 00.58  1.8361 2.4624 117.1 20.8 4.31  44
2021 09 16 09  03 46 48.012   +01 44 58.24  1.8357 2.4625 117.1 20.8 4.36  45
2021 09 16 10  03 46 48.578   +01 44 55.90  1.8354 2.4625 117.2 20.8 4.41  45
2021 09 16 11  03 46 49.141   +01 44 53.55  1.8350 2.4626 117.2 20.8 4.46  45
2021 09 16 12  03 46 49.701   +01 44 51.20  1.8346 2.4627 117.2 20.8 4.51  45
2021 09 16 13  03 46 50.258   +01 44 48.85  1.8342 2.4627 117.3 20.8 4.56  45
2021 09 16 14  03 46 50.813   +01 44 46.49  1.8339 2.4628 117.3 20.8 4.61  45
2021 09 16 15  03 46 51.364   +01 44 44.13  1.8335 2.4629 117.3 20.8 4.67  45
2021 09 16 16  03 46 51.912   +01 44 41.77  1.8331 2.4629 117.4 20.8 4.72  46
2021 09 16 17  03 46 52.458   +01 44 39.40  1.8328 2.4630 117.4 20.8 4.77  46
2021 09 16 18  03 46 53.000   +01 44 37.03  1.8324 2.4631 117.5 20.8 4.83  46
2021 09 16 19  03 46 53.540   +01 44 34.65  1.8320 2.4631 117.5 20.8 4.88  46
2021 09 16 20  03 46 54.077   +01 44 32.27  1.8317 2.4632 117.5 20.8 4.93  46
2021 09 16 21  03 46 54.610   +01 44 29.89  1.8313 2.4633 117.6 20.8 4.99  46
2021 09 16 22  03 46 55.141   +01 44 27.50  1.8309 2.4633 117.6 20.8 5.04  46
2021 09 16 23  03 46 55.669   +01 44 25.11  1.8306 2.4634 117.6 20.8 5.10  47
2021 09 17 00  03 46 56.194   +01 44 22.71  1.8302 2.4635 117.7 20.8 5.16  47
2021 09 17 01  03 46 56.716   +01 44 20.31  1.8299 2.4635 117.7 20.8 5.21  47
2021 09 17 02  03 46 57.236   +01 44 17.91  1.8295 2.4636 117.7 20.8 5.27  47
2021 09 17 03  03 46 57.752   +01 44 15.51  1.8291 2.4637 117.8 20.8 5.33  47
2021 09 17 04  03 46 58.265   +01 44 13.09  1.8288 2.4637 117.8 20.8 5.39  47
2021 09 17 05  03 46 58.776   +01 44 10.68  1.8284 2.4638 117.9 20.8 5.44  47
2021 09 17 06  03 46 59.283   +01 44 08.26  1.8280 2.4639 117.9 20.8 5.50  48
2021 09 17 07  03 46 59.788   +01 44 05.84  1.8277 2.4639 117.9 20.8 5.56  48
2021 09 17 08  03 47 00.289   +01 44 03.42  1.8273 2.4640 118.0 20.8 5.62  48
2021 09 17 09  03 47 00.788   +01 44 00.99  1.8269 2.4641 118.0 20.8 5.68  48
2021 09 17 10  03 47 01.284   +01 43 58.55  1.8266 2.4641 118.0 20.8 5.74  48
2021 09 17 11  03 47 01.777   +01 43 56.12  1.8262 2.4642 118.1 20.8 5.80  48
2021 09 17 12  03 47 02.267   +01 43 53.68  1.8258 2.4643 118.1 20.8 5.86  48
2021 09 17 13  03 47 02.754   +01 43 51.23  1.8255 2.4643 118.1 20.8 5.93  48
2021 09 17 14  03 47 03.238   +01 43 48.79  1.8251 2.4644 118.2 20.8 5.99  49
2021 09 17 15  03 47 03.719   +01 43 46.34  1.8247 2.4645 118.2 20.8 6.05  49
2021 09 17 16  03 47 04.197   +01 43 43.88  1.8244 2.4645 118.2 20.8 6.11  49
2021 09 17 17  03 47 04.672   +01 43 41.42  1.8240 2.4646 118.3 20.8 6.18  49
2021 09 17 18  03 47 05.145   +01 43 38.96  1.8237 2.4647 118.3 20.8 6.24  49
2021 09 17 19  03 47 05.614   +01 43 36.49  1.8233 2.4647 118.4 20.8 6.31  49
2021 09 17 20  03 47 06.081   +01 43 34.03  1.8229 2.4648 118.4 20.8 6.37  49
2021 09 17 21  03 47 06.544   +01 43 31.55  1.8226 2.4649 118.4 20.8 6.44  49